Hourly Weather Aberdeen

Today, 27 November, Friday

Time Temperature Precipitation Wind Pressure Humidity
00:00 -4°C° 0 mm 3 mps 728 mmHg 72%
01:00 -5°C° 0 mm 3 mps 728 mmHg 73%
02:00 -5°C° 0 mm 3 mps 728 mmHg 74%
03:00 -6°C° 0 mm 3 mps 729 mmHg 76%
04:00 -5°C° 0 mm 2 mps 729 mmHg 78%
05:00 -5°C° 0 mm 2 mps 729 mmHg 80%
06:00 -5°C° 0 mm 2 mps 729 mmHg 78%
07:00 -4°C° 0 mm 2 mps 729 mmHg 77%
08:00 -4°C° 0 mm 2 mps 729 mmHg 75%
09:00 -1°C° 0 mm 3 mps 729 mmHg 66%
10:00 0°C° 0 mm 4 mps 728 mmHg 57%
11:00 +3°C° 0 mm 4 mps 728 mmHg 47%
12:00 +5°C° 0 mm 4 mps 728 mmHg 42%
13:00 +6°C° 0 mm 4 mps 727 mmHg 37%
14:00 +7°C° 0 mm 4 mps 727 mmHg 32%
15:00 +6°C° 0 mm 4 mps 726 mmHg 36%
16:00 +4°C° 0 mm 4 mps 726 mmHg 39%
17:00 +3°C° 0 mm 4 mps 725 mmHg 42%
18:00 +3°C° 0 mm 4 mps 725 mmHg 42%
19:00 +1°C° 0 mm 4 mps 725 mmHg 43%
20:00 +1°C° 0 mm 4 mps 725 mmHg 44%
21:00 +1°C° 0 mm 4 mps 725 mmHg 44%
22:00 +2°C° 0 mm 3 mps 725 mmHg 45%
23:00 +2°C° 0 mm 3 mps 724 mmHg 46%

Tomorrow, 28 November, Saturday

Time Temperature Precipitation Wind Pressure Humidity
00:00 +2°C° 0 mm 3 mps 724 mmHg 47%
01:00 +2°C° 0 mm 3 mps 724 mmHg 48%
02:00 +2°C° 0 mm 3 mps 724 mmHg 49%
03:00 +1°C° 0 mm 3 mps 724 mmHg 50%
04:00 +1°C° 0 mm 3 mps 724 mmHg 52%
05:00 +1°C° 0 mm 3 mps 724 mmHg 53%
06:00 +1°C° 0 mm 3 mps 724 mmHg 52%
07:00 +1°C° 0 mm 3 mps 724 mmHg 51%
08:00 +1°C° 0 mm 3 mps 724 mmHg 51%
09:00 +4°C° 0 mm 3 mps 723 mmHg 44%
10:00 +7°C° 0 mm 3 mps 723 mmHg 37%
11:00 +10°C° 0 mm 4 mps 723 mmHg 30%
12:00 +11°C° 0 mm 4 mps 723 mmHg 28%
13:00 +12°C° 0 mm 3 mps 722 mmHg 27%
14:00 +13°C° 0 mm 3 mps 722 mmHg 25%
15:00 +11°C° 0 mm 3 mps 722 mmHg 28%
16:00 +9°C° 0 mm 3 mps 722 mmHg 31%
17:00 +7°C° 0 mm 3 mps 722 mmHg 34%
18:00 +7°C° 0 mm 3 mps 723 mmHg 32%
19:00 +7°C° 0 mm 3 mps 723 mmHg 31%
20:00 +6°C° 0 mm 4 mps 724 mmHg 30%
21:00 +5°C° 0 mm 4 mps 725 mmHg 36%
22:00 +5°C° 0 mm 4 mps 725 mmHg 41%
23:00 +3°C° 0 mm 5 mps 726 mmHg 47%

Day after tomorrow, 29 November, Sunday

Time Temperature Precipitation Wind Pressure Humidity
00:00 +2°C° 0 mm 5 mps 727 mmHg 50%
01:00 +1°C° 0 mm 6 mps 729 mmHg 52%
02:00 -1°C° 0 mm 7 mps 730 mmHg 55%
03:00 -2°C° 0 mm 7 mps 731 mmHg 57%
04:00 -3°C° 0 mm 6 mps 731 mmHg 60%
05:00 -3°C° 0 mm 6 mps 732 mmHg 62%
06:00 -4°C° 0 mm 6 mps 733 mmHg 62%
07:00 -5°C° 0 mm 6 mps 734 mmHg 62%
08:00 -6°C° 0 mm 6 mps 734 mmHg 63%
09:00 -5°C° 0 mm 6 mps 735 mmHg 55%
10:00 -4°C° 0 mm 6 mps 735 mmHg 48%
11:00 -3°C° 0 mm 6 mps 736 mmHg 41%
12:00 -3°C° 0 mm 6 mps 736 mmHg 38%
13:00 -2°C° 0 mm 6 mps 736 mmHg 36%
14:00 -2°C° 0 mm 6 mps 736 mmHg 34%
15:00 -2°C° 0 mm 5 mps 736 mmHg 37%
16:00 -3°C° 0 mm 4 mps 736 mmHg 40%
17:00 -4°C° 0 mm 3 mps 736 mmHg 43%
18:00 -5°C° 0 mm 3 mps 736 mmHg 46%
19:00 -5°C° 0 mm 2 mps 736 mmHg 48%
20:00 -6°C° 0 mm 2 mps 736 mmHg 50%
21:00 -6°C° 0 mm 2 mps 736 mmHg 52%
22:00 -4°C° 0 mm 1 mps 736 mmHg 53%
23:00 -6°C° 0 mm 1 mps 736 mmHg 54%

30 November, Monday

Time Temperature Precipitation Wind Pressure Humidity
00:00 -6°C° 0 mm 1 mps 736 mmHg 54%
01:00 -6°C° 0 mm 1 mps 736 mmHg 55%
02:00 -6°C° 0 mm 1 mps 735 mmHg 55%
03:00 -6°C° 0 mm 1 mps 735 mmHg 55%
04:00 -6°C° 0 mm 1 mps 734 mmHg 56%
05:00 -7°C° 0 mm 2 mps 734 mmHg 57%
06:00 -7°C° 0 mm 2 mps 734 mmHg 56%
07:00 -8°C° 0 mm 3 mps 733 mmHg 54%
08:00 -8°C° 0 mm 3 mps 733 mmHg 53%
09:00 -7°C° 0 mm 4 mps 732 mmHg 47%
10:00 -4°C° 0 mm 4 mps 731 mmHg 40%
11:00 -2°C° 0 mm 5 mps 730 mmHg 33%
12:00 -1°C° 0 mm 5 mps 729 mmHg 32%
13:00 -1°C° 0 mm 5 mps 728 mmHg 31%
14:00 0°C° 0 mm 5 mps 728 mmHg 29%
15:00 -1°C° 0 mm 5 mps 727 mmHg 32%
16:00 -4°C° 0 mm 5 mps 726 mmHg 34%
17:00 -5°C° 0 mm 5 mps 726 mmHg 37%
18:00 -5°C° 0 mm 5 mps 725 mmHg 37%
19:00 -5°C° 0 mm 5 mps 724 mmHg 38%
20:00 -5°C° 0 mm 6 mps 724 mmHg 38%
21:00 -6°C° 0 mm 5 mps 723 mmHg 39%
22:00 -6°C° 0 mm 5 mps 723 mmHg 40%
23:00 -6°C° 0 mm 5 mps 722 mmHg 41%

1 December, Tuesday

Time Temperature Precipitation Wind Pressure Humidity
00:00 -5°C° 0 mm 4 mps 722 mmHg 43%
01:00 -5°C° 0 mm 4 mps 721 mmHg 44%
02:00 -6°C° 0 mm 3 mps 721 mmHg 46%
03:00 -5°C° 0 mm 2 mps 721 mmHg 48%
04:00 -6°C° 0 mm 2 mps 721 mmHg 49%
05:00 -4°C° 0 mm 1 mps 720 mmHg 51%
06:00 -4°C° 0 mm 1 mps 721 mmHg 50%
07:00 -3°C° 0 mm 1 mps 721 mmHg 49%
08:00 -3°C° 0 mm 1 mps 721 mmHg 48%
09:00 -2°C° 0 mm 1 mps 721 mmHg 45%
10:00 -1°C° 0 mm 1 mps 721 mmHg 41%
11:00 0°C° 0 mm 1 mps 722 mmHg 38%
12:00 +1°C° 0 mm 1 mps 722 mmHg 38%
13:00 +1°C° 0 mm 1 mps 722 mmHg 38%
14:00 +1°C° 0 mm 1 mps 722 mmHg 38%
15:00 +1°C° 0 mm 1 mps 722 mmHg 41%
16:00 0°C° 0 mm 1 mps 723 mmHg 44%
17:00 -1°C° 0 mm 1 mps 724 mmHg 47%
18:00 -1°C° 0 mm 1 mps 724 mmHg 47%
19:00 -1°C° 0 mm 1 mps 725 mmHg 48%
20:00 -3°C° 0 mm 2 mps 725 mmHg 48%
21:00 -4°C° 0 mm 2 mps 726 mmHg 49%
22:00 -4°C° 0 mm 2 mps 727 mmHg 50%
23:00 -5°C° 0 mm 3 mps 727 mmHg 51%

2 December, Wednesday

Time Temperature Precipitation Wind Pressure Humidity
00:00 -6°C° 0 mm 3 mps 728 mmHg 52%
01:00 -6°C° 0 mm 3 mps 729 mmHg 53%
02:00 -7°C° 0 mm 3 mps 730 mmHg 55%
03:00 -7°C° 0 mm 3 mps 731 mmHg 54%
04:00 -7°C° 0 mm 3 mps 732 mmHg 53%
05:00 -8°C° 0 mm 4 mps 733 mmHg 52%
06:00 -8°C° 0 mm 4 mps 733 mmHg 51%
07:00 -8°C° 0 mm 4 mps 734 mmHg 50%
08:00 -8°C° 0 mm 4 mps 735 mmHg 48%
09:00 -5°C° 0 mm 4 mps 736 mmHg 43%
10:00 -5°C° 0 mm 5 mps 736 mmHg 38%
11:00 -2°C° 0 mm 5 mps 737 mmHg 33%
12:00 -1°C° 0 mm 5 mps 737 mmHg 33%
13:00 -1°C° 0 mm 4 mps 737 mmHg 33%
14:00 0°C° 0 mm 4 mps 737 mmHg 34%
15:00 -1°C° 0 mm 3 mps 737 mmHg 40%
16:00 -2°C° 0 mm 3 mps 737 mmHg 47%
17:00 -5°C° 0 mm 3 mps 737 mmHg 54%
18:00 -5°C° 0 mm 3 mps 738 mmHg 60%
19:00 -6°C° 0 mm 3 mps 738 mmHg 66%
20:00 -6°C° 0 mm 3 mps 738 mmHg 72%
21:00 -7°C° 0 mm 3 mps 738 mmHg 77%
22:00 -7°C° 0 mm 3 mps 738 mmHg 81%
23:00 -7°C° 0 mm 3 mps 738 mmHg 85%
Show more

We Need Your Consent

Meteoprog and our Service Providers may store and access personal data such as cookies, device identifiers or other similar technologies on your device and process such data to personalise content and ads, as well as provide social media features and to analyse the traffic.

  • Store and/or access information on your device

    Cookies, device identifiers or other information can be stored or accessed on your device for the purposes indicated above.

  • Personalised ads and content, ad and content measurement, audience insights, and products development

    Ads and content can be personalised based on a profile. More data can be added to better personalise ads and content. Ad and content performance can be measured. Insights about the audience who saw the ads and content can be derived. Such data can be used to develop or improve user’s experience, systems and software.

By clicking ‘I Agree’ you will allow the use of indicated cookies, device identifiers, web beacons or other similar technologies. Your settings can be changed in the browser on your device.

For certain purposes, legitimate interests may be relied on, rather than consent. You can read more about this in our Privacy and Cookie Policy.